Location: Allaines
(49.9632°N, 2.9458°E)
Time: 07:31:09
(UTC+00:00)

Tiangong - Pass Details

Date: 24 June 2021
Orbit: 373 x 386 km, 41.5° (Epoch: 03 August)

Event Time Altitude Azimuth Distance (km) Brightness Sun altitude
Exits shadow 01:58:42 12° 166° (SSE) 1,299 3.3 -11.3°
Maximum altitude 01:58:53 12° 162° (SSE) 1,297 3.3 -11.3°
Drops below altitude 10° 02:00:03 10° 140° (SE) 1,390 3.7 -11.2°
Sets 02:03:12 0° 106° (ESE) 2,250 5.2 -11.0°
